Regional Weather Roundup
Issued by NWS

Home | Current Version | Previous Version | Graphics & Text | Print | Product List | Glossary Off
Versions: 1 2 3 4 5 6 7 8 9 10 11 12 13 14 15 16 17 18 19 20 21 22 23 24 25 26 27 28 29 30 31 32 33 34 35 36 37 38 39 40 41 42 43 44 45 46 47 48 49 50

000
ASUS45 KABQ 260610
RWRNM
WEATHER ROUNDUP FOR NEW MEXICO
NATIONAL WEATHER SERVICE ALBUQUERQUE NM
1100 PM MST TUE NOV 25 2014

NOTE: "FAIR" MEANS FEW OR NO CLOUDS BELOW 12,000 FEET AGL WITH NO
       SIGNIFICANT WEATHER OR OBSTRUCTIONS TO VISION.

      THIS PRODUCT IS RELEASED AS TWO VERSIONS.  ONE VERSION NEAR
      THE TOP OF THE HOUR CONTAINING PRELIMINARY DATA FROM ALBUQUERQUE
      AND OTHER STATIONS.  A FINAL VERSION WITH ADDITIONAL DATA IS
      ISSUED ABOUT 10 MINUTES AFTER THE HOUR.

NMZ501-503-504-510>518-260700-
NORTHWEST PLATEAU/NORTHCENTRAL MOUNTAINS

CITY           SKY/WX    TMP DP  RH WIND       PRES   REMARKS
FARMINGTON     CLEAR     31   4  31 W6        30.32S WCI  25
6HR MIN TEMP:  30; 6HR MAX TEMP:  42;

LOS ALAMOS     PTCLDY    31   8  38 CALM      30.27R
SANTA FE       PTCLDY    34   9  35 NW12      30.24F WCI  25
6HR MIN TEMP:  29; 6HR MAX TEMP:  36;

TAOS           PTCLDY    25  10  54 E6        30.28R WCI  18
ANGEL FIRE     FAIR      28  10  48 W20G26    30.23S WCI  14

$$
NMZ402-403-502-505>509-260700-
WESTCENTRAL MOUNTAINS/SOUTHWEST MOUNTAINS

CITY           SKY/WX    TMP DP  RH WIND       PRES   REMARKS
GALLUP         CLEAR     23  -3  32 E3        30.38S
6HR MIN TEMP:  23; 6HR MAX TEMP:  43;

GRANTS         CLEAR     28   1  31 NW9G16    30.36R WCI  20
SILVER CITY    CLEAR     36   0  21 N10       30.35S WCI  28

$$
NMZ407-409-411-412-260700-
SOUTHERN DESERTS

CITY           SKY/WX    TMP DP  RH WIND       PRES   REMARKS
LORDSBURG      FAIR      34   0  23 W7        30.34R WCI  28
DEMING         CLEAR     35   1  23 SW9       30.32R WCI  28
6HR MIN TEMP:  34; 6HR MAX TEMP:  52;

LAS CRUCES     CLEAR     37   2  23 SW6       30.32R WCI  32
HOLLOMAN AFB   PTCLDY    32   4  31 NE8       30.28S WCI  25
ALAMOGORDO     PTCLDY    39   5  24 MISG      30.29S
T OR C         CLEAR     38   5  25 VRB6      30.29S WCI  33
6HR MIN TEMP:  36; 6HR MAX TEMP:  51;


$$
NMZ519>523-260700-
CENTRAL VALLEYS/CENTRAL HIGHLANDS

CITY           SKY/WX    TMP DP  RH WIND       PRES   REMARKS
ALBUQUERQUE    PTCLDY    38   7  27 N5        30.31R WCI  34
6HR MIN TEMP:  37; 6HR MAX TEMP:  47;

DOUBLE EAGLE   CLEAR     29   5  36 NW9       30.32R WCI  20
MORIARTY ARPT  FAIR      41  14  33 NW12      30.26S
6HR MIN TEMP:  31; 6HR MAX TEMP:  42;

CLINES CORNERS PTCLDY    32  11  41 NW6       30.21S WCI  26
6HR MIN TEMP:  30; 6HR MAX TEMP:  36;

BELEN          FAIR      30   3  32 N3        30.31R
6HR MIN TEMP:  30; 6HR MAX TEMP:  45;

SOCORRO        FAIR      37   2  22 SE8       30.29R WCI  30
6HR MIN TEMP:  34; 6HR MAX TEMP:  47;


$$
NMZ524>526-539-540-260700-
SOUTHCENTRAL MOUNTAINS

CITY           SKY/WX    TMP DP  RH WIND       PRES   REMARKS
RUIDOSO        CLEAR     41   5  22 NW25G37   30.24S

$$
NMZ527>531-260700-
NORTHEAST HIGHLANDS/NORTHEAST PLAINS

CITY           SKY/WX    TMP DP  RH WIND       PRES   REMARKS
LAS VEGAS      PTCLDY    28  14  55 NE9       30.12S WCI  19
6HR MIN TEMP:  27; 6HR MAX TEMP:  42;

RATON          CLEAR     33  17  51 VRB5      30.06R WCI  29
6HR MIN TEMP:  31; 6HR MAX TEMP:  48;

CLAYTON        CLEAR     36  18  48 W10       30.01R WCI  28
6HR MIN TEMP:  34; 6HR MAX TEMP:  45;


$$
NMZ532>537-260700-
EASTCENTRAL PLAINS

CITY           SKY/WX    TMP DP  RH WIND       PRES   REMARKS
TUCUMCARI      CLEAR     44  16  32 W14       30.05R
6HR MIN TEMP:  43; 6HR MAX TEMP:  51;

CANNON AFB     CLEAR     46  12  25 NW18G25   30.06F
6HR MIN TEMP:  45; 6HR MAX TEMP:  50;

CLOVIS AIRPORT CLEAR     43  12  28 W20       30.06R

$$
NMZ028-029-538-260700-
SOUTHEAST PLAINS

CITY           SKY/WX    TMP DP  RH WIND       PRES   REMARKS
ROSWELL        CLEAR     36  15  42 SE5       30.15R WCI  32
6HR MIN TEMP:  34; 6HR MAX TEMP:  56;

CARLSBAD       CLEAR     50   9  19 NW7       30.14R
6HR MIN TEMP:  50; 6HR MAX TEMP:  55;

HOBBS          CLEAR     45   9  23 W15       30.13S


$$


USA.gov is the U.S. government's official web portal to all federal, state and local government web resources and services.